#�ϑ�����,���ϕ���,���ϕ���,�ő啗��,�ő啗����������,�ő�u�ԕ���,�ő�u�ԕ�����������
#(�N����),(m/s)   ,(16����),(m/s)   ,(16����)        ,(m/s)       ,(16����)            
2016/2/24 0:01,1.3,1,1.3,1,2.9,1
2016/2/24 0:02,1.4,1,1.4,1,3.5,1
2016/2/24 0:03,1.6,1,1.6,1,4.7,2
2016/2/24 0:04,1.7,1,1.7,1,3.9,2
2016/2/24 0:05,1.8,1,1.8,2,2.6,16
2016/2/24 0:06,1.8,1,1.9,2,2.2,1
2016/2/24 0:07,1.6,1,1.7,1,1.8,15
2016/2/24 0:08,1.5,1,1.5,1,1.3,15
2016/2/24 0:09,1.5,16,1.5,1,2.4,15
2016/2/24 0:10,1.5,1,1.5,1,1.9,2
2016/2/24 0:11,1.3,1,1.5,1,0.3,1
2016/2/24 0:12,1.2,16,1.3,1,0.4,10
2016/2/24 0:13,0.9,16,1.2,1,0.9,12
2016/2/24 0:14,0.8,16,0.9,1,1.1,3
2016/2/24 0:15,0.6,16,0.7,1,1.4,2
2016/2/24 0:16,0.7,1,0.7,1,2.2,4
2016/2/24 0:17,0.8,2,0.8,1,4.3,16
2016/2/24 0:18,0.9,3,0.9,1,2.6,3
2016/2/24 0:19,1,3,1,16,3.9,4
2016/2/24 0:20,1.1,4,1.1,1,3.1,6
2016/2/24 0:21,1.2,4,1.2,1,2.4,2
2016/2/24 0:22,1.4,4,1.4,4,3.3,2
2016/2/24 0:23,1.5,4,1.5,4,2.6,1
2016/2/24 0:24,1.6,3,1.6,3,2.5,15
2016/2/24 0:25,1.6,3,1.6,3,1.3,12
2016/2/24 0:26,1.5,2,1.6,3,1.3,10
2016/2/24 0:27,1.3,2,1.5,3,1.5,11
2016/2/24 0:28,1.2,1,1.3,3,1.8,6
2016/2/24 0:29,1.1,16,1.2,3,2,7
2016/2/24 0:30,0.9,14,1.1,3,0.8,15
2016/2/24 0:31,0.9,13,0.9,3,0.3,13
2016/2/24 0:32,0.7,12,0.8,3,0.8,13
2016/2/24 0:33,0.7,12,0.7,3,1.1,13
2016/2/24 0:34,0.7,11,0.7,3,1.8,9
2016/2/24 0:35,0.7,10,0.7,3,1.6,9
2016/2/24 0:36,0.6,10,0.7,2,0.8,6
2016/2/24 0:37,0.6,10,0.6,2,0.4,12
2016/2/24 0:38,0.6,11,0.6,1,2.1,1
2016/2/24 0:39,0.7,12,0.7,15,2.5,15
2016/2/24 0:40,0.8,12,0.8,14,2.5,11
2016/2/24 0:41,0.8,12,0.8,13,1.8,16
2016/2/24 0:42,1.1,12,1.1,12,4.8,15
2016/2/24 0:43,1.3,14,1.3,13,6.2,16
2016/2/24 0:44,1.4,16,1.5,16,5.1,1
2016/2/24 0:45,1.7,15,1.7,15,6.1,14
2016/2/24 0:46,2,15,2,15,4.3,14
2016/2/24 0:47,2.4,15,2.4,15,6.1,16
2016/2/24 0:48,2.6,15,2.6,15,5.4,15
2016/2/24 0:49,2.6,15,2.6,15,4.3,15
2016/2/24 0:50,2.6,16,2.6,15,2.6,15
2016/2/24 0:51,2.7,16,2.7,16,2.6,15
2016/2/24 0:52,2.5,16,2.7,16,2.1,2
2016/2/24 0:53,2.3,16,2.5,16,3,1
2016/2/24 0:54,2.3,16,2.3,16,3.6,1
2016/2/24 0:55,2.2,16,2.3,16,4.2,1
2016/2/24 0:56,2.1,1,2.2,16,2.9,3
2016/2/24 0:57,1.7,1,2.1,16,1.5,5
2016/2/24 0:58,1.5,1,1.7,16,2.9,5
2016/2/24 0:59,1.5,2,1.5,16,2.7,4
2016/2/24 1:00,1.6,2,1.6,16,3,1
2016/2/24 1:01,1.5,2,1.6,16,2.4,2
2016/2/24 1:02,1.6,2,1.6,16,1.8,2
2016/2/24 1:03,1.5,2,1.6,16,1.9,16
2016/2/24 1:04,1.4,2,1.5,16,2.2,15
2016/2/24 1:05,1.3,2,1.4,16,2.1,14
2016/2/24 1:06,1.2,1,1.3,1,2,16
2016/2/24 1:07,1.3,16,1.3,1,1.6,16
2016/2/24 1:08,1.2,16,1.3,2,1,15
2016/2/24 1:09,1.2,16,1.2,2,1.1,3
2016/2/24 1:10,1.1,16,1.2,2,1.9,15
2016/2/24 1:11,1.2,16,1.2,2,3.5,16
2016/2/24 1:12,1.3,16,1.3,2,4.3,1
2016/2/24 1:13,1.3,16,1.4,2,1.8,1
2016/2/24 1:14,1.3,16,1.3,2,3.1,4
2016/2/24 1:15,1.3,1,1.3,16,2.6,3
2016/2/24 1:16,1.2,2,1.3,16,1.5,3
2016/2/24 1:17,1.2,2,1.2,16,1.5,8
2016/2/24 1:18,1.3,2,1.3,16,4.9,2
2016/2/24 1:19,1.6,2,1.6,2,5.8,15
2016/2/24 1:20,1.9,2,1.9,2,5.6,15
2016/2/24 1:21,2.1,2,2.1,2,6,16
2016/2/24 1:22,2.1,2,2.1,2,5.1,15
2016/2/24 1:23,2,2,2.1,2,2.1,15
2016/2/24 1:24,1.9,1,2,2,0.6,15
2016/2/24 1:25,1.8,16,1.9,2,0.3,9
2016/2/24 1:26,1.9,15,1.9,2,2.5,14
2016/2/24 1:27,2,15,2,2,4.9,14
2016/2/24 1:28,2.1,15,2.1,2,5.1,15
2016/2/24 1:29,2,15,2.1,2,4.1,15
2016/2/24 1:30,2,14,2,2,4.7,14
2016/2/24 1:31,2,14,2,2,10.3,15
2016/2/24 1:32,2.3,14,2.3,14,8.2,15
2016/2/24 1:33,2.7,14,2.7,14,8.2,13
2016/2/24 1:34,3.2,14,3.2,14,7.2,16
2016/2/24 1:35,3.7,15,3.7,15,7.5,16
2016/2/24 1:36,3.8,15,3.8,15,4.5,16
2016/2/24 1:37,4,15,4,15,6,16
2016/2/24 1:38,4,15,4,15,6.4,1
2016/2/24 1:39,4.1,16,4.1,15,5.8,1
2016/2/24 1:40,4,16,4.1,15,4.5,4
2016/2/24 1:41,3.7,16,4,15,3.9,1
2016/2/24 1:42,3.6,1,3.7,15,6.4,1
2016/2/24 1:43,3.5,1,3.5,15,7.8,1
2016/2/24 1:44,3.3,1,3.4,15,6.3,16
2016/2/24 1:45,3.2,1,3.3,15,6.2,1
2016/2/24 1:46,3.5,1,3.5,15,10.3,2
2016/2/24 1:47,3.9,1,3.9,15,11.3,2
2016/2/24 1:48,4,2,4,15,8.3,3
2016/2/24 1:49,3.9,2,4,16,6.2,3
2016/2/24 1:50,4,1,4,16,5.4,3
2016/2/24 1:51,4.4,2,4.4,2,10.3,3
2016/2/24 1:52,4.6,2,4.6,2,10.2,2
2016/2/24 1:53,4.4,2,4.6,2,6.4,16
2016/2/24 1:54,4.3,2,4.4,2,5.7,16
2016/2/24 1:55,4.3,2,4.3,2,6.8,2
2016/2/24 1:56,4.2,2,4.4,2,8.9,1
2016/2/24 1:57,3.9,2,4.2,2,9.2,1
2016/2/24 1:58,4,1,4,2,6.7,16
2016/2/24 1:59,3.9,1,4,2,5.2,1
2016/2/24 2:00,3.7,1,3.9,2,3.5,2
2016/2/24 2:01,3.4,1,3.7,2,5.4,15
2016/2/24 2:02,3.4,1,3.4,2,7.9,16
2016/2/24 2:03,3.6,1,3.6,2,8.5,3
2016/2/24 2:04,3.6,1,3.6,2,5.6,1
2016/2/24 2:05,3.8,1,3.8,2,9.5,1
2016/2/24 2:06,3.8,16,3.8,2,8.9,2
2016/2/24 2:07,3.8,16,3.9,2,10.1,1
2016/2/24 2:08,3.7,1,3.8,1,7,1
2016/2/24 2:09,4,1,4,1,8.7,1
2016/2/24 2:10,4.2,1,4.2,1,8.4,1
2016/2/24 2:11,4.2,1,4.3,1,5.2,2
2016/2/24 2:12,3.9,1,4.2,1,5.2,2
2016/2/24 2:13,3.8,1,3.9,1,7,1
2016/2/24 2:14,3.8,1,3.8,1,5.4,1
2016/2/24 2:15,3.6,1,3.8,1,6.4,1
2016/2/24 2:16,3.6,1,3.6,1,6.3,15
2016/2/24 2:17,3.7,1,3.7,1,8.9,1
2016/2/24 2:18,3.8,1,3.8,1,7.5,1
2016/2/24 2:19,3.5,1,3.8,1,6,1
2016/2/24 2:20,3.7,16,3.7,1,7.4,16
2016/2/24 2:21,3.8,16,3.8,1,7.9,16
2016/2/24 2:22,3.9,16,3.9,1,6.7,2
2016/2/24 2:23,3.8,16,3.9,16,5.2,16
2016/2/24 2:24,3.9,1,3.9,16,9,3
2016/2/24 2:25,4.1,1,4.1,1,7.9,3
2016/2/24 2:26,4.1,1,4.1,1,6.8,16
2016/2/24 2:27,3.9,1,4.1,1,7.4,1
2016/2/24 2:28,3.8,1,3.9,1,5.6,1
2016/2/24 2:29,3.8,1,3.8,1,5.7,16
2016/2/24 2:30,3.7,1,3.9,1,6.2,16
2016/2/24 2:31,4.1,1,4.1,1,12.6,2
2016/2/24 2:32,4.4,1,4.4,1,10.3,2
2016/2/24 2:33,4.5,1,4.5,1,5.6,16
2016/2/24 2:34,4.5,1,4.6,1,7.5,15
2016/2/24 2:35,4.2,1,4.4,1,4.3,16
2016/2/24 2:36,4.2,16,4.3,1,6,1
2016/2/24 2:37,4.2,16,4.2,1,8.7,16
2016/2/24 2:38,4.8,1,4.8,1,16.5,15
2016/2/24 2:39,5.1,16,5.2,16,12.4,16
2016/2/24 2:40,5.1,1,5.2,16,6.1,16
2016/2/24 2:41,4.7,1,5.1,16,7.8,2
2016/2/24 2:42,4.5,16,4.6,16,7.7,1
2016/2/24 2:43,4.8,16,4.8,16,10.7,15
2016/2/24 2:44,5,16,5,16,12.4,16
2016/2/24 2:45,5.1,16,5.1,16,6.3,16
2016/2/24 2:46,5,16,5.1,16,5.8,16
2016/2/24 2:47,4.9,16,5,16,5.8,1
2016/2/24 2:48,4.5,16,4.9,16,9.2,1
2016/2/24 2:49,3.9,1,4.4,16,7,16
2016/2/24 2:50,3.9,16,4,1,7.5,14
2016/2/24 2:51,4.3,16,4.3,16,12.2,15
2016/2/24 2:52,4.5,16,4.5,16,9.9,1
2016/2/24 2:53,4.3,16,4.5,16,7.6,16
2016/2/24 2:54,4,16,4.2,16,4.7,16
2016/2/24 2:55,4,16,4,16,5.6,16
2016/2/24 2:56,3.9,16,4.1,16,8.1,2
2016/2/24 2:57,3.8,1,3.9,16,6.1,1
2016/2/24 2:58,3.8,16,3.9,16,5.8,3
2016/2/24 2:59,4.2,16,4.2,16,11.3,1
2016/2/24 3:00,4.4,16,4.4,16,7,16
2016/2/24 3:01,4.1,16,4.3,16,8.5,15
2016/2/24 3:02,4,16,4.2,16,8.4,15
2016/2/24 3:03,4.1,16,4.1,16,6,1
2016/2/24 3:04,4.2,16,4.2,16,7.1,2
2016/2/24 3:05,4,16,4.2,16,4.9,2
2016/2/24 3:06,4.1,16,4.1,16,5.8,16
2016/2/24 3:07,4.2,16,4.2,16,9.1,1
2016/2/24 3:08,4.4,16,4.4,16,10.3,1
2016/2/24 3:09,4.5,16,4.6,16,12.4,16
2016/2/24 3:10,4.6,16,4.6,16,10,2
2016/2/24 3:11,4.7,1,4.7,16,8.6,2
2016/2/24 3:12,4.6,1,4.7,16,9.3,2
2016/2/24 3:13,4.6,1,4.7,16,9.2,1
2016/2/24 3:14,4.8,1,4.8,1,8.9,2
2016/2/24 3:15,5,1,5,1,7.6,15
2016/2/24 3:16,5.1,1,5.1,1,6.1,16
2016/2/24 3:17,5.1,1,5.1,1,6.9,16
2016/2/24 3:18,5.1,1,5.2,1,9.3,1
2016/2/24 3:19,4.6,1,5.1,1,5.7,2
2016/2/24 3:20,4.4,1,4.6,1,5.4,16
2016/2/24 3:21,4.2,1,4.3,1,6.9,16
2016/2/24 3:22,4,1,4.2,1,7,16
2016/2/24 3:23,3.9,1,3.9,1,6.8,2
2016/2/24 3:24,3.9,16,3.9,1,10.5,16
2016/2/24 3:25,4,16,4,1,8.5,16
2016/2/24 3:26,4.2,1,4.2,1,10.8,1
2016/2/24 3:27,4.2,1,4.2,1,10.5,16
2016/2/24 3:28,4.3,1,4.4,1,14.2,16
2016/2/24 3:29,4.6,1,4.6,1,11.5,2
2016/2/24 3:30,4.8,16,4.8,16,8.2,15
2016/2/24 3:31,4.8,1,4.9,16,7.6,2
2016/2/24 3:32,5.1,1,5.1,16,10.1,15
2016/2/24 3:33,5.4,16,5.4,16,9.5,1
2016/2/24 3:34,5.3,16,5.4,16,9,16
2016/2/24 3:35,5.4,16,5.4,16,11.9,1
2016/2/24 3:36,5.8,16,5.8,16,13.1,15
2016/2/24 3:37,6,16,6.1,16,11.3,16
2016/2/24 3:38,6.1,16,6.1,16,11.3,15
2016/2/24 3:39,6.3,16,6.3,16,12.7,15
2016/2/24 3:40,6.5,16,6.5,16,11.4,1
2016/2/24 3:41,6.4,16,6.4,16,8.6,2
2016/2/24 3:42,6.4,16,6.5,16,11.3,1
2016/2/24 3:43,6.2,16,6.4,16,7.8,1
2016/2/24 3:44,6,16,6.2,16,7.4,2
2016/2/24 3:45,6.1,16,6.1,16,11.4,16
2016/2/24 3:46,5.9,16,6.1,16,11.6,16
2016/2/24 3:47,5.6,1,5.8,16,7.2,1
2016/2/24 3:48,5.5,1,5.6,16,8.9,1
2016/2/24 3:49,5.2,1,5.5,16,8.2,16
2016/2/24 3:50,4.9,1,5.2,16,6.1,16
2016/2/24 3:51,4.8,1,4.9,16,5,16
2016/2/24 3:52,4.8,16,4.9,16,12.1,14
2016/2/24 3:53,4.9,1,4.9,16,7.9,1
2016/2/24 3:54,5.1,1,5.1,16,9.5,1
2016/2/24 3:55,4.9,1,5.2,16,7.8,2
2016/2/24 3:56,4.6,1,4.9,16,7.9,2
2016/2/24 3:57,4.6,1,4.6,1,9,16
2016/2/24 3:58,4.3,1,4.6,1,6.5,16
2016/2/24 3:59,4.2,1,4.2,1,7.1,1
2016/2/24 4:00,4.5,1,4.5,1,10.3,16
2016/2/24 4:01,4.7,1,4.7,1,9.1,15
2016/2/24 4:02,4.8,1,4.8,1,8.6,16
2016/2/24 4:03,4.8,16,4.9,1,8.9,16
2016/2/24 4:04,4.6,16,4.7,1,8.1,16
2016/2/24 4:05,4.5,16,4.6,1,5.5,1
2016/2/24 4:06,4.7,16,4.7,16,9.3,1
2016/2/24 4:07,4.6,16,4.7,16,7,15
2016/2/24 4:08,4.7,16,4.7,16,6.8,15
2016/2/24 4:09,4.6,16,4.7,16,4.8,1
2016/2/24 4:10,4.2,16,4.5,16,4.2,16
2016/2/24 4:11,4,16,4.2,16,5.4,16
2016/2/24 4:12,3.6,16,4,16,4.3,16
2016/2/24 4:13,3.4,16,3.6,16,4.4,16
2016/2/24 4:14,3.1,16,3.4,16,2.5,1
2016/2/24 4:15,2.9,16,3.1,16,2.4,16
2016/2/24 4:16,2.5,16,2.9,16,3.8,15
2016/2/24 4:17,2.4,16,2.5,16,5.1,15
2016/2/24 4:18,2.4,16,2.5,16,5.8,15
2016/2/24 4:19,2.5,16,2.5,16,4.1,15
2016/2/24 4:20,2.7,16,2.7,16,7.9,15
2016/2/24 4:21,2.6,16,2.7,16,5.8,16
2016/2/24 4:22,2.7,16,2.7,16,4.2,16
2016/2/24 4:23,2.8,1,2.8,16,10.8,1
2016/2/24 4:24,3.1,16,3.1,16,6.3,14
2016/2/24 4:25,3.5,16,3.5,16,8.2,15
2016/2/24 4:26,4.2,16,4.2,16,15.2,15
2016/2/24 4:27,4.5,16,4.5,16,13.5,16
2016/2/24 4:28,4.6,16,4.6,16,8.3,1
2016/2/24 4:29,4.8,16,4.8,16,8.6,2
2016/2/24 4:30,4.9,16,5,16,9.7,2
2016/2/24 4:31,5.1,16,5.1,16,8.6,1
2016/2/24 4:32,5.4,16,5.4,16,11.3,15
2016/2/24 4:33,5.6,16,5.6,16,10.5,1
2016/2/24 4:34,5.8,16,5.8,16,9.1,15
2016/2/24 4:35,5.6,16,5.8,16,6.2,15
2016/2/24 4:36,4.9,16,5.6,16,4.8,1
2016/2/24 4:37,4.6,16,4.8,16,5.5,16
2016/2/24 4:38,4.6,16,4.6,16,9.9,1
2016/2/24 4:39,4.8,16,4.8,16,12.1,16
2016/2/24 4:40,4.6,16,4.8,16,8.6,15
2016/2/24 4:41,4.5,16,4.6,16,8.9,15
2016/2/24 4:42,4.5,16,4.5,16,9,15
2016/2/24 4:43,4.2,16,4.5,16,7.8,2
2016/2/24 4:44,4.1,16,4.2,16,8.6,1
2016/2/24 4:45,4.2,16,4.2,16,8.6,16
2016/2/24 4:46,4.7,16,4.7,16,10.9,16
2016/2/24 4:47,4.9,16,4.9,16,8.2,16
2016/2/24 4:48,4.7,16,4.9,16,8.2,15
2016/2/24 4:49,4.5,16,4.6,16,10,1
2016/2/24 4:50,4.8,16,4.8,16,11.5,1
2016/2/24 4:51,4.8,16,4.9,16,6.7,16
2016/2/24 4:52,4.4,16,4.7,16,4.5,1
2016/2/24 4:53,4.6,16,4.6,16,8.2,15
2016/2/24 4:54,4.4,16,4.6,16,7.9,16
2016/2/24 4:55,4.3,16,4.3,16,9.2,1
2016/2/24 4:56,4.1,16,4.3,16,9.2,2
2016/2/24 4:57,4,1,4.1,16,6.3,2
2016/2/24 4:58,4,1,4,16,4.8,16
2016/2/24 4:59,3.9,1,4.1,16,6.2,1
2016/2/24 5:00,3.7,1,3.9,16,7.4,1
2016/2/24 5:01,3.9,1,3.9,16,9.2,15
2016/2/24 5:02,4.1,16,4.1,16,8.4,15
2016/2/24 5:03,4.1,16,4.2,16,8.5,1
2016/2/24 5:04,4.4,16,4.4,1,8.9,15
2016/2/24 5:05,4.5,1,4.6,16,10.2,16
2016/2/24 5:06,4.5,16,4.5,16,7.5,16
2016/2/24 5:07,4.3,16,4.5,16,4.9,1
2016/2/24 5:08,4.3,16,4.3,16,5.6,16
2016/2/24 5:09,4.2,16,4.2,16,8.2,2
2016/2/24 5:10,4.2,16,4.2,16,8.9,16
2016/2/24 5:11,4.3,16,4.4,16,11,1
2016/2/24 5:12,4.1,16,4.3,16,7.7,2
2016/2/24 5:13,3.9,16,4.1,16,3,15
2016/2/24 5:14,3.6,16,3.9,16,5.5,1
2016/2/24 5:15,3.7,16,3.7,1,7.6,16
2016/2/24 5:16,3.5,16,3.7,16,5.7,16
2016/2/24 5:17,3.5,16,3.5,16,5.1,2
2016/2/24 5:18,3.6,16,3.6,16,6.3,15
2016/2/24 5:19,3.6,16,3.6,16,9,1
2016/2/24 5:20,3.8,16,3.8,16,9.1,16
2016/2/24 5:21,3.7,16,3.8,16,7.6,1
2016/2/24 5:22,3.8,16,3.8,16,7.9,15
2016/2/24 5:23,4.4,16,4.4,16,13.5,16
2016/2/24 5:24,4.6,16,4.6,16,10.6,1
2016/2/24 5:25,4.4,16,4.7,16,7.6,16
2016/2/24 5:26,4.4,16,4.4,16,7.4,1
2016/2/24 5:27,4.7,16,4.7,16,10.6,14
2016/2/24 5:28,4.8,16,4.8,16,9.8,1
2016/2/24 5:29,5,16,5,16,10.1,2
2016/2/24 5:30,4.8,16,5,16,8.7,15
2016/2/24 5:31,4.8,16,4.8,16,9,15
2016/2/24 5:32,4.8,16,4.8,16,8.1,15
2016/2/24 5:33,4.5,16,4.8,16,8.3,1
2016/2/24 5:34,4.4,16,4.6,16,9.2,1
2016/2/24 5:35,4.5,16,4.5,16,7.6,1
2016/2/24 5:36,4.3,16,4.5,16,5,2
2016/2/24 5:37,4,16,4.3,16,2.4,1
2016/2/24 5:38,3.8,16,4,16,6.4,14
2016/2/24 5:39,3.7,16,3.8,16,12.2,16
2016/2/24 5:40,4,1,4,16,11,1
2016/2/24 5:41,4,1,4.1,16,9.4,16
2016/2/24 5:42,4,1,4,16,5.5,2
2016/2/24 5:43,3.8,1,4,16,4.8,1
2016/2/24 5:44,3.5,1,3.8,16,4.7,4
2016/2/24 5:45,3.5,1,3.5,16,6.1,15
2016/2/24 5:46,3.7,1,3.7,16,7.1,1
2016/2/24 5:47,4.1,1,4.1,1,8.2,2
2016/2/24 5:48,4.1,1,4.2,1,6.8,16
2016/2/24 5:49,3.9,1,4.1,1,5.8,2
2016/2/24 5:50,3.4,1,3.8,1,4.9,2
2016/2/24 5:51,3.1,1,3.4,1,3.9,2
2016/2/24 5:52,3.1,1,3.1,1,6.4,14
2016/2/24 5:53,3.1,16,3.1,1,6,1
2016/2/24 5:54,3.4,16,3.4,1,8.3,1
2016/2/24 5:55,3.6,16,3.6,1,6.4,2
2016/2/24 5:56,3.5,16,3.6,1,6.5,16
2016/2/24 5:57,3.4,16,3.5,1,7.1,1
2016/2/24 5:58,3.5,16,3.5,1,9.4,1
2016/2/24 5:59,3.8,16,3.8,1,10.8,1
2016/2/24 6:00,4,16,4,16,8.3,15
2016/2/24 6:01,4.1,16,4.1,16,6.5,15
2016/2/24 6:02,4.3,1,4.3,1,11.1,1
2016/2/24 6:03,4.3,1,4.4,1,10,1
2016/2/24 6:04,4.3,16,4.3,1,8.1,16
2016/2/24 6:05,4.2,16,4.3,1,8.6,16
2016/2/24 6:06,4.7,16,4.7,16,16.2,16
2016/2/24 6:07,5,16,5,16,13,1
2016/2/24 6:08,4.9,16,5.1,16,7.5,16
2016/2/24 6:09,4.9,16,4.9,16,9.3,14
2016/2/24 6:10,5.1,16,5.1,16,10.7,16
2016/2/24 6:11,5.1,16,5.1,16,8.7,1
2016/2/24 6:12,4.9,16,5.1,16,5.6,16
2016/2/24 6:13,5.2,16,5.2,16,12.4,16
2016/2/24 6:14,5.3,16,5.4,16,11.7,2
2016/2/24 6:15,5.4,16,5.5,16,8.5,2
2016/2/24 6:16,4.8,16,5.3,16,5.6,2
2016/2/24 6:17,4.6,16,4.8,16,9.4,2
2016/2/24 6:18,4.7,16,4.7,16,7.9,15
2016/2/24 6:19,4.5,16,4.7,16,6.7,15
2016/2/24 6:20,4.1,1,4.4,16,5.7,16
2016/2/24 6:21,4.1,16,4.1,16,7.6,15
2016/2/24 6:22,4.1,16,4.1,16,6.5,15
2016/2/24 6:23,3.7,16,4.1,16,4.2,16
2016/2/24 6:24,3.3,16,3.6,16,4.3,16
2016/2/24 6:25,3.2,16,3.3,16,5.5,1
2016/2/24 6:26,3.3,16,3.4,16,5.6,16
2016/2/24 6:27,2.9,16,3.3,16,2.6,16
2016/2/24 6:28,2.6,1,2.9,16,3,6
2016/2/24 6:29,2.5,1,2.6,16,3.1,1
2016/2/24 6:30,2.3,1,2.5,1,4.5,16
2016/2/24 6:31,2.1,1,2.4,16,1.9,4
2016/2/24 6:32,1.9,1,2,16,2.6,3
2016/2/24 6:33,1.8,2,1.9,16,3,5
2016/2/24 6:34,1.7,2,1.8,16,4.3,3
2016/2/24 6:35,1.5,3,1.7,16,3.6,3
2016/2/24 6:36,1.6,3,1.6,16,5.7,1
2016/2/24 6:37,1.8,3,1.8,16,6.8,1
2016/2/24 6:38,2,3,2,1,4.8,3
2016/2/24 6:39,2.1,3,2.1,1,4.4,3
2016/2/24 6:40,2.2,3,2.2,1,6.4,2
2016/2/24 6:41,2.5,3,2.5,3,5.6,13
2016/2/24 6:42,2.6,3,2.6,3,6.7,16
2016/2/24 6:43,2.6,2,2.6,3,3,16
2016/2/24 6:44,2.8,2,2.8,2,9.7,15
2016/2/24 6:45,3.1,2,3.1,2,9.8,16
2016/2/24 6:46,3.1,1,3.1,2,7,2
2016/2/24 6:47,3.1,1,3.2,1,6.7,16
2016/2/24 6:48,3.2,1,3.2,1,6.1,16
2016/2/24 6:49,3.3,1,3.3,1,6.1,16
2016/2/24 6:50,3.3,1,3.4,1,6.5,2
2016/2/24 6:51,3.2,1,3.3,1,5.2,2
2016/2/24 6:52,3.1,1,3.2,1,4.8,16
2016/2/24 6:53,3.2,1,3.2,1,3.5,9
2016/2/24 6:54,3.3,1,3.3,1,7.7,15
2016/2/24 6:55,3.1,1,3.2,1,8.1,16
2016/2/24 6:56,3.1,1,3.1,1,5,2
2016/2/24 6:57,2.9,1,3.1,1,3.9,15
2016/2/24 6:58,2.8,1,2.9,1,4.1,16
2016/2/24 6:59,2.9,1,2.9,1,7.9,2
2016/2/24 7:00,2.9,16,2.9,1,4.9,16
2016/2/24 7:01,3,16,3,1,6.3,1
2016/2/24 7:02,3.3,1,3.3,1,8.5,1
2016/2/24 7:03,3.5,16,3.5,16,6,1
2016/2/24 7:04,3.3,16,3.5,16,4.9,15
2016/2/24 7:05,3.4,16,3.4,16,7.7,15
2016/2/24 7:06,3.5,16,3.6,16,8.2,2
2016/2/24 7:07,3.9,16,3.9,16,9.8,1
2016/2/24 7:08,4.2,16,4.2,16,8.3,15
2016/2/24 7:09,4.1,16,4.2,16,6.8,1
2016/2/24 7:10,4.1,16,4.2,16,5.6,3
2016/2/24 7:11,3.9,16,4.1,16,3.6,15
2016/2/24 7:12,3.8,16,3.9,16,8.2,15
2016/2/24 7:13,4.2,16,4.2,16,10.9,16
2016/2/24 7:14,4.7,16,4.7,16,12.6,16
2016/2/24 7:15,5,16,5,16,14.5,16
2016/2/24 7:16,5.1,16,5.1,16,9.8,2
2016/2/24 7:17,5,16,5.1,16,9.8,16
2016/2/24 7:18,4.9,16,5,16,5.7,16
2016/2/24 7:19,5.1,16,5.1,16,9.3,16
2016/2/24 7:20,5.4,16,5.4,16,8.4,15
2016/2/24 7:21,5.7,16,5.7,16,8.2,1
2016/2/24 7:22,5.9,16,5.9,16,9,16
2016/2/24 7:23,6,16,6,16,13,15
2016/2/24 7:24,5.8,16,6,16,10.9,16
2016/2/24 7:25,5.6,16,5.8,16,9.3,16
2016/2/24 7:26,5.5,16,5.6,16,8.9,16
2016/2/24 7:27,5.4,16,5.5,16,8.4,1
2016/2/24 7:28,5.6,16,5.6,16,8.9,1
2016/2/24 7:29,5.7,16,5.7,16,13.2,15
2016/2/24 7:30,5.7,16,5.7,16,13.6,16
2016/2/24 7:31,5.9,16,5.9,16,9.5,16
2016/2/24 7:32,5.9,16,6,16,10.6,1
2016/2/24 7:33,5.6,16,5.9,16,11.7,2
2016/2/24 7:34,5.7,16,5.7,16,10.9,16
2016/2/24 7:35,5.8,1,5.8,16,10.5,16
2016/2/24 7:36,5.7,1,5.8,16,9.5,16
2016/2/24 7:37,5.8,16,5.8,16,10.6,16
2016/2/24 7:38,6,16,6,16,10.2,16
2016/2/24 7:39,5.9,1,6,16,10.9,15
2016/2/24 7:40,5.8,16,5.9,16,8.7,2
2016/2/24 7:41,5.9,1,5.9,16,9.8,2
2016/2/24 7:42,5.6,1,5.9,16,7.8,16
2016/2/24 7:43,5.5,16,5.6,16,9.5,16
2016/2/24 7:44,5.6,16,5.7,16,10.8,16
2016/2/24 7:45,5.5,16,5.7,16,8.6,1
2016/2/24 7:46,5.5,16,5.5,16,6.2,1
2016/2/24 7:47,5.3,16,5.5,16,7.1,16
2016/2/24 7:48,5.1,16,5.3,16,9.9,15
2016/2/24 7:49,5,16,5.1,1,9.1,1
2016/2/24 7:50,4.7,16,5,16,4.2,16
2016/2/24 7:51,4.4,16,4.6,1,4.5,2
2016/2/24 7:52,4.4,16,4.4,16,5.6,1
2016/2/24 7:53,4.6,16,4.6,16,10.8,16
2016/2/24 7:54,4.4,16,4.6,16,8.7,16
2016/2/24 7:55,4.3,16,4.3,16,7.7,1
2016/2/24 7:56,4.3,16,4.3,16,7.4,15
2016/2/24 7:57,4.3,16,4.4,16,6,16
2016/2/24 7:58,4.1,16,4.3,16,6,1
2016/2/24 7:59,4.1,16,4.1,16,6.2,1
2016/2/24 8:00,4,16,4,16,5,1
2016/2/24 8:01,4,16,4,16,5.5,16
2016/2/24 8:02,4.2,16,4.2,16,10.3,15
2016/2/24 8:03,4,16,4.2,16,10.3,2
2016/2/24 8:04,4.1,16,4.2,16,10.5,1
2016/2/24 8:05,4.1,16,4.2,16,8.6,16
2016/2/24 8:06,4.1,1,4.1,16,8.3,2
2016/2/24 8:07,4.2,1,4.2,16,9.7,1
2016/2/24 8:08,4.3,1,4.3,1,6.9,1
2016/2/24 8:09,4.4,1,4.4,1,9,16
2016/2/24 8:10,4.5,1,4.5,1,7.5,1
2016/2/24 8:11,4.7,1,4.7,1,9.7,2
2016/2/24 8:12,4.4,1,4.7,1,6.8,2
2016/2/24 8:13,4.2,1,4.4,1,4.2,1
2016/2/24 8:14,3.9,1,4.2,1,6.2,15
2016/2/24 8:15,3.9,1,3.9,1,6.9,2
2016/2/24 8:16,4,1,4.1,1,8.1,1
2016/2/24 8:17,3.6,1,3.9,1,3.3,2
2016/2/24 8:18,3.3,1,3.5,1,1.9,1
2016/2/24 8:19,3,1,3.3,1,3.7,1
2016/2/24 8:20,2.8,1,2.9,1,3.5,2
2016/2/24 8:21,2.4,1,2.8,1,0.6,16
2016/2/24 8:22,2.1,1,2.3,1,2.1,16
2016/2/24 8:23,2,1,2.1,1,2.7,2
2016/2/24 8:24,1.7,1,2,1,2.9,2
2016/2/24 8:25,1.5,2,1.7,1,2.4,3
2016/2/24 8:26,1.2,2,1.4,1,2.2,3
2016/2/24 8:27,1.3,2,1.3,1,4.3,5
2016/2/24 8:28,1.6,2,1.6,1,5.8,2
2016/2/24 8:29,1.6,2,1.6,1,3.9,1
2016/2/24 8:30,1.6,2,1.6,1,3.2,16
2016/2/24 8:31,1.7,2,1.7,1,2.6,8
2016/2/24 8:32,1.8,2,1.8,1,3.1,13
2016/2/24 8:33,1.9,1,1.9,1,3.3,14
2016/2/24 8:34,2.1,1,2.1,1,7.1,16
2016/2/24 8:35,2.3,16,2.3,16,5.8,16
2016/2/24 8:36,2.5,16,2.5,16,5.4,16
2016/2/24 8:37,2.4,16,2.4,16,3.3,1
2016/2/24 8:38,2.1,16,2.3,16,2.6,2
2016/2/24 8:39,2.1,16,2.1,16,5.8,1
2016/2/24 8:40,2.1,16,2.1,16,6.4,2
2016/2/24 8:41,2.2,16,2.2,16,6.8,2
2016/2/24 8:42,2.5,16,2.5,16,8.5,2
2016/2/24 8:43,2.6,1,2.6,1,7.1,1
2016/2/24 8:44,2.6,1,2.7,1,6.1,16
2016/2/24 8:45,2.6,1,2.6,1,4.2,1
2016/2/24 8:46,2.6,1,2.6,1,5.5,16
2016/2/24 8:47,2.9,1,2.9,1,5.7,16
2016/2/24 8:48,3.1,1,3.1,1,6.2,15
2016/2/24 8:49,3.3,16,3.3,16,8.9,16
2016/2/24 8:50,3.2,1,3.2,16,3.9,14
2016/2/24 8:51,3.2,1,3.2,16,5,15
2016/2/24 8:52,3.2,16,3.2,16,7.9,15
2016/2/24 8:53,3.3,16,3.3,16,8.1,1
2016/2/24 8:54,3.6,1,3.6,1,13.3,1
2016/2/24 8:55,4,1,4,1,11.3,2
2016/2/24 8:56,4.1,1,4.1,1,9,1
2016/2/24 8:57,4,1,4.1,1,4.8,2
2016/2/24 8:58,4,16,4,1,5.4,15
2016/2/24 8:59,4.3,16,4.3,16,13.5,16
2016/2/24 9:00,4.6,16,4.6,16,8.7,16
2016/2/24 9:01,4.8,16,4.8,16,8.6,2
2016/2/24 9:02,4.9,16,4.9,16,12.3,16
2016/2/24 9:03,4.9,16,5,16,11.7,2
2016/2/24 9:04,4.7,16,4.9,16,7.9,1
2016/2/24 9:05,4.3,16,4.7,16,4.8,1
2016/2/24 9:06,4.2,16,4.3,16,5,14
2016/2/24 9:07,4.2,16,4.2,16,4.7,1
2016/2/24 9:08,4,16,4.2,16,2.4,1
2016/2/24 9:09,3.5,16,4,16,4.7,1
2016/2/24 9:10,3.4,1,3.5,16,5.6,2
2016/2/24 9:11,3.1,1,3.3,16,3.6,2
2016/2/24 9:12,2.9,1,3.1,16,4.4,4
2016/2/24 9:13,2.7,1,2.9,16,6.3,15
2016/2/24 9:14,2.8,1,2.8,16,8.6,1
2016/2/24 9:15,3.1,1,3.1,16,9.7,2
2016/2/24 9:16,3.2,1,3.2,16,6.8,1
2016/2/24 9:17,3.3,1,3.3,16,8.4,16
2016/2/24 9:18,3.6,1,3.6,16,7,3
2016/2/24 9:19,3.9,1,3.9,1,10.5,2
2016/2/24 9:20,3.9,1,3.9,1,6.1,15
2016/2/24 9:21,4,16,4,1,7.4,16
2016/2/24 9:22,4,16,4.1,16,7.2,15
2016/2/24 9:23,4,16,4,16,7,16
2016/2/24 9:24,3.8,16,3.9,16,6.1,16
2016/2/24 9:25,3.5,16,3.8,16,5.4,15
2016/2/24 9:26,3.5,16,3.5,16,8.1,14
2016/2/24 9:27,3.6,16,3.6,16,9.9,1
2016/2/24 9:28,3.6,16,3.6,16,10.6,1
2016/2/24 9:29,3.5,16,3.6,16,8.4,16
2016/2/24 9:30,4,16,4,16,13.5,16
2016/2/24 9:31,4,16,4,16,9.9,16
2016/2/24 9:32,4.5,16,4.5,16,15.7,16
2016/2/24 9:33,4.6,16,4.6,16,10.2,16
2016/2/24 9:34,5.3,16,5.3,16,15.6,16
2016/2/24 9:35,5.9,16,5.9,16,12.8,1
2016/2/24 9:36,6.1,16,6.1,16,11,2
2016/2/24 9:37,5.9,16,6.1,16,8.5,16
2016/2/24 9:38,6.4,16,6.4,16,13.5,16
2016/2/24 9:39,6.9,16,6.9,16,14.2,16
2016/2/24 9:40,6.7,16,6.9,16,10.5,16
2016/2/24 9:41,6.8,16,6.8,16,11.8,1
2016/2/24 9:42,6.7,16,6.9,16,12.7,16
2016/2/24 9:43,6.7,16,6.8,16,10.3,16
2016/2/24 9:44,6.2,16,6.6,16,9.1,2
2016/2/24 9:45,5.8,16,6.2,16,8.7,2
2016/2/24 9:46,5.9,16,5.9,16,10.2,16
2016/2/24 9:47,5.9,16,5.9,16,9.2,16
2016/2/24 9:48,5.7,16,5.9,16,11.1,16
2016/2/24 9:49,5.2,16,5.7,16,8.6,2
2016/2/24 9:50,5,16,5.2,16,7.6,2
2016/2/24 9:51,4.8,1,5,16,5.7,2
2016/2/24 9:52,4.2,1,4.6,16,3.6,7
2016/2/24 9:53,4.1,1,4.2,16,5.7,16
2016/2/24 9:54,4,1,4.1,16,6.1,1
2016/2/24 9:55,3.9,1,4,16,7.9,3
2016/2/24 9:56,3.7,1,3.9,16,4.9,16
2016/2/24 9:57,3.6,1,3.7,16,6.8,2
2016/2/24 9:58,3.3,1,3.6,16,5.4,1
2016/2/24 9:59,3.3,1,3.4,16,9.3,14
2016/2/24 10:00,3.5,1,3.5,16,9.1,16
2016/2/24 10:01,3.6,1,3.6,1,8.9,16
2016/2/24 10:02,4,1,4,1,11.4,16
2016/2/24 10:03,4.2,1,4.2,1,8.5,1
2016/2/24 10:04,4.3,1,4.3,1,11.5,2
2016/2/24 10:05,4.6,16,4.6,16,11.9,2
2016/2/24 10:06,4.8,16,4.8,16,9.5,13
2016/2/24 10:07,4.5,16,4.8,16,6.8,16
2016/2/24 10:08,4.6,16,4.6,16,7.9,1
2016/2/24 10:09,4.3,16,4.6,16,6.7,16
2016/2/24 10:10,4.2,16,4.3,16,7.9,2
2016/2/24 10:11,4.2,16,4.3,16,10.7,15
2016/2/24 10:12,4,16,4.3,16,8.3,16
2016/2/24 10:13,4.1,16,4.2,16,10.2,16
2016/2/24 10:14,4.2,16,4.3,16,9.1,14
2016/2/24 10:15,4,16,4.2,16,8.1,3
2016/2/24 10:16,3.8,16,3.9,16,5.5,1
2016/2/24 10:17,3.7,16,3.8,16,4.2,1
2016/2/24 10:18,3.5,16,3.7,16,3.7,1
2016/2/24 10:19,3.9,16,3.9,16,11.7,2
2016/2/24 10:20,4.2,16,4.2,16,11.4,16
2016/2/24 10:21,4,16,4.1,16,6.3,14
2016/2/24 10:22,4,16,4,16,6.7,16
2016/2/24 10:23,3.6,16,4,16,5.6,16
2016/2/24 10:24,3.4,1,3.6,16,6,16
2016/2/24 10:25,3.3,16,3.4,16,9.3,16
2016/2/24 10:26,3.7,16,3.7,16,9.8,16
2016/2/24 10:27,4.3,16,4.3,16,10,15
2016/2/24 10:28,4.7,16,4.7,16,9.8,16
2016/2/24 10:29,4.4,16,4.7,16,6.3,15
2016/2/24 10:30,4.5,16,4.5,16,9.8,16
2016/2/24 10:31,5,16,5,16,13.5,16
2016/2/24 10:32,5.6,16,5.6,16,13.6,16
2016/2/24 10:33,5.9,16,5.9,16,8.7,2
2016/2/24 10:34,6.4,16,6.4,16,14.9,15
2016/2/24 10:35,6.8,16,6.8,16,11.8,15
2016/2/24 10:36,6.9,16,7,16,13.8,1
2016/2/24 10:37,6.9,16,6.9,16,12.1,16
2016/2/24 10:38,6.9,16,6.9,16,13,16
2016/2/24 10:39,7.2,16,7.2,16,11.5,15
2016/2/24 10:40,7.2,16,7.4,16,13.9,15
2016/2/24 10:41,6.8,16,7.2,16,8.2,2
2016/2/24 10:42,6.3,16,6.8,16,8.7,1
2016/2/24 10:43,6.1,16,6.3,16,7.7,1
2016/2/24 10:44,6,16,6.1,16,9.9,1
2016/2/24 10:45,5.8,16,6,16,15,16
2016/2/24 10:46,5.7,16,5.9,16,10.8,15
2016/2/24 10:47,5.7,16,5.7,16,14.1,16
2016/2/24 10:48,5.6,16,5.8,16,10.6,16
2016/2/24 10:49,5.6,16,5.6,16,13.1,1
2016/2/24 10:50,5.8,16,5.8,16,12.7,16
2016/2/24 10:51,5.8,16,5.8,16,10.3,15
2016/2/24 10:52,6.3,16,6.3,16,13.4,16
2016/2/24 10:53,6.4,16,6.5,16,10.2,16
2016/2/24 10:54,6.3,16,6.4,16,8.9,15
2016/2/24 10:55,6,16,6.3,16,8.1,1
2016/2/24 10:56,6,16,6,16,11.8,16
2016/2/24 10:57,6.2,16,6.2,16,13.8,16
2016/2/24 10:58,6.1,16,6.2,16,10.1,16
2016/2/24 10:59,6,16,6.2,16,9.9,16
2016/2/24 11:00,6,16,6.1,16,13,2
2016/2/24 11:01,5.9,16,6,16,8.6,16
2016/2/24 11:02,5.5,16,5.9,16,9.7,16
2016/2/24 11:03,5.9,16,5.9,16,14,16
2016/2/24 11:04,5.8,16,6,16,10.3,16
2016/2/24 11:05,6.1,16,6.1,16,13.5,16
2016/2/24 11:06,6,16,6.2,16,7.9,14
2016/2/24 11:07,5.4,16,6,16,6.3,16
2016/2/24 11:08,5.6,16,5.6,16,13.5,16
2016/2/24 11:09,5.6,16,5.7,16,14,16
2016/2/24 11:10,5.6,16,5.7,16,17,16